User: anonymous   Login
Location: Caltech
(34.1382°N, 118.1253°W)
Time: 20:30:45
(UTC-07:00)
Language:

Hubble Space Telescope - Orbit

View from above orbital plane
View from above orbital plane
View from above satellite
View from above satellite

Ground track
Ground track

The orbit data is extracted from the following two-line orbital elements,

1 20580U 90037B   15212.47217189  .00001074  00000-0  57441-4 0  9991
2 20580 028.4690 222.0694 0002907 358.1759 128.9828 15.07584526186508
Epoch (UTC): 31 July 2015 11:19:55
Eccentricity: 0.0002907
inclination: 28.4690°
perigee height: 541 km
apogee height: 545 km
right ascension of ascending node: 222.0694°
argument of perigee: 358.1759°
revolutions per day: 15.07584526
mean anomaly at epoch: 128.9828°
orbit number at epoch: 18650

The dashed part of the orbit path shows where the satellite is in the earth's shadow,  

DLR